Change the Weather History Date:

Tuesday, March 12, 2013

  Actual Average Record
Temperature  
Mean Temperature 48 °F -  
Max Temperature 54 °F 43 °F 71 °F (2012)
Min Temperature 42 °F 26 °F 0 °F (1996)
Degree Days  
Heating Degree Days 18    
Cooling Degree Days 0    
Moisture  
Dew Point 45 °F    
Average Humidity 90    
Maximum Humidity 100    
Minimum Humidity 77    
Precipitation  
Precipitation 0.40 in 0.09 in 1.02 in (1983)
Month to date precipitation 1.24  
Year to date precipitation 7.04  
Snow  
Snow 0.00 in - - ()
Month to date snowfall  
Since 1 July snowfall  
Snow Depth -    
Sea Level Pressure  
Sea Level Pressure 29.97 in    
Wind  
Wind Speed 9 mph (SSE)    
Max Wind Speed 18 mph    
Max Gust Speed 26 mph    
Visibility 5 miles    
Events Rain    
T = Trace of Precipitation, MM = Missing Value Source: NWS Daily Summary

Daily Weather History Graph

Daily Weather History Graph

Search for Another Location

Airport or City:

Trip Planner

Search our weather history database for the weather conditions in past years. The results will help you decide how hot, cold, wet, or windy it might be!

Date:

Astronomy

Mar. 12, 2013 Rise Set
Actual Time 7:02 AM EDT 6:48 PM EDT
Civil Twilight 6:34 AM EDT 7:17 PM EDT
Nautical Twilight 6:01 AM EDT 7:49 PM EDT
Astronomical Twilight 5:28 AM EDT 8:23 PM EDT
Moon 7:05 AM EDT (3/12) 8:03 PM EDT (3/12)
Length of Visible Light 12h 42m
Length of Day
11h 46m
New Moon, 1% of the Moon is Illuminated
Mar 12
New Moon
Mar 19
First Quarter
Mar 27
Full
Apr 3
Last Quarter
Apr 10
New

Hourly Weather History & Observations

Time (EDT) Temp. Windchill Dew Point Humidity Pressure Visibility Wind Dir Wind Speed Gust Speed Precip Events Conditions
12:32 AM 42.8 °F 38.0 °F 37.4 °F 81% 30.11 in 10.0 mi South 8.1 mph - N/A   Scattered Clouds
12:53 AM 42.1 °F 36.6 °F 37.9 °F 85% 30.16 in 10.0 mi South 9.2 mph - N/A   Scattered Clouds
1:53 AM 43.0 °F 37.2 °F 39.9 °F 89% 30.15 in 10.0 mi SSE 10.4 mph 18.4 mph N/A   Overcast
2:53 AM 43.0 °F 38.8 °F 39.9 °F 89% 30.14 in 10.0 mi South 6.9 mph - N/A   Overcast
3:53 AM 44.1 °F 42.5 °F 41.0 °F 89% 30.10 in 8.0 mi South 3.5 mph - N/A   Overcast
4:53 AM 43.0 °F 40.3 °F 41.0 °F 93% 30.10 in 1.0 mi SSE 4.6 mph - N/A   Overcast
5:16 AM 44.6 °F 39.2 °F 41.0 °F 87% 30.04 in 2.0 mi SE 10.4 mph - N/A   Overcast
5:53 AM 43.0 °F 38.2 °F 41.0 °F 93% 30.09 in 2.0 mi SE 8.1 mph - N/A   Overcast
6:00 AM 42.8 °F 38.0 °F 41.0 °F 93% 30.04 in 5.0 mi SE 8.1 mph - N/A   Overcast
6:53 AM 43.0 °F 39.5 °F 42.1 °F 97% 30.08 in 1.0 mi SSE 5.8 mph - N/A   Overcast
7:26 AM 42.8 °F 39.3 °F 42.8 °F 100% 30.03 in 0.8 mi SE 5.8 mph - N/A   Overcast
7:53 AM 43.0 °F 39.5 °F 42.1 °F 97% 30.07 in 0.5 mi SE 5.8 mph - N/A   Overcast
8:39 AM 44.6 °F 41.4 °F 42.8 °F 93% 30.02 in 0.2 mi Variable 5.8 mph - N/A   Overcast
8:53 AM 44.1 °F 39.5 °F 43.0 °F 96% 30.06 in 0.5 mi SE 8.1 mph - N/A   Overcast
9:18 AM 44.6 °F 40.7 °F 44.6 °F 100% 30.02 in 1.5 mi SSE 6.9 mph - 0.00 in   Overcast
9:53 AM 46.0 °F 41.4 °F 44.1 °F 93% 30.06 in 1.5 mi SE 9.2 mph - 0.00 in   Overcast
10:16 AM 46.4 °F 42.4 °F 44.6 °F 93% 30.00 in 2.0 mi SE 8.1 mph - N/A   Overcast
10:36 AM 46.4 °F 41.5 °F 44.6 °F 93% 30.00 in 2.0 mi SE 10.4 mph - N/A   Overcast
10:53 AM 48.0 °F - 45.0 °F 89% 30.03 in 5.0 mi SE 11.5 mph - N/A   Overcast
11:50 AM 50.0 °F - 46.4 °F 87% 29.96 in 6.0 mi SSE 11.5 mph - 0.00 in Rain Light Rain
11:53 AM 50.0 °F - 46.0 °F 86% 30.01 in 6.0 mi SSE 10.4 mph - 0.00 in Rain Light Rain
12:53 PM 53.1 °F - 46.9 °F 80% 29.97 in 6.0 mi SSE 12.7 mph - 0.00 in   Haze
1:06 PM 53.6 °F - 46.4 °F 77% 29.92 in 6.0 mi SE 13.8 mph - N/A   Haze
1:53 PM 53.1 °F - 46.9 °F 80% 29.95 in 8.0 mi SSE 10.4 mph - N/A   Overcast
2:53 PM 53.1 °F - 48.0 °F 83% 29.92 in 7.0 mi SE 9.2 mph - 0.00 in Rain Light Rain
3:53 PM 51.1 °F - 48.9 °F 92% 29.89 in 2.5 mi SE 11.5 mph - 0.03 in Rain Light Rain
4:32 PM 51.8 °F - 48.2 °F 88% 29.82 in 4.0 mi SE 10.4 mph - 0.01 in Rain Light Rain
4:53 PM 51.1 °F - 48.9 °F 92% 29.86 in 5.0 mi SE 10.4 mph - 0.02 in Rain Light Rain
5:53 PM 52.0 °F - 48.9 °F 89% 29.82 in 5.0 mi SE 16.1 mph - 0.04 in Rain Light Rain
6:53 PM 53.1 °F - 50.0 °F 89% 29.79 in 5.0 mi SE 13.8 mph - 0.13 in Rain Rain
7:53 PM 53.1 °F - 50.0 °F 89% 29.75 in 5.0 mi SE 18.4 mph 26.5 mph 0.13 in Rain Rain
8:53 PM 53.1 °F - 51.1 °F 93% 29.73 in 5.0 mi SSE 16.1 mph 24.2 mph 0.04 in Rain Light Rain
9:53 PM 53.1 °F - 51.1 °F 93% 29.74 in 4.0 mi South 11.5 mph - 0.01 in   Light Drizzle
10:53 PM 53.1 °F - 51.1 °F 93% 29.74 in 10.0 mi South 5.8 mph - 0.00 in   Light Drizzle
11:53 PM 52.0 °F - 50.0 °F 93% 29.75 in 10.0 mi WSW 4.6 mph - 0.00 in   Light Drizzle